OK,55,52,1023,55,2014-10-01T01:40:00,0,28072793,201775
OK,55,52,1023,55,2014-10-01T01:45:00,0,28073240,201775
OK,55,52,1023,55,2014-10-01T01:50:00,0,28073688,201775
OK,55,52,1023,55,2014-10-01T01:55:00,0,28074006,201775
OK,55,52,1023,55,2014-10-01T02:05:00,0,28074895,201775
OK,55,52,1023,55,2014-10-01T02:10:00,0,28075344,201775
OK,55,52,1023,55,2014-10-01T02:15:00,0,28075793,201775
OK,55,52,1023,55,2014-10-01T02:20:00,0,28076176,201775
OK,55,52,1023,55,2014-10-01T02:25:00,0,28076625,201775
OK,55,52,1023,55,2014-10-01T02:30:00,0,28077074,201775
OK,55,52,1023,55,2014-10-01T02:35:00,0,28077523,201775
OK,55,52,1023,55,2014-10-01T02:40:00,0,28077926,201775
OK,55,52,1023,55,2014-10-01T02:45:00,0,28078375,201775
OK,55,52,1023,55,2014-10-01T02:50:00,0,28078820,201775
OK,55,52,1023,55,2014-10-01T02:55:00,0,28079269,201775
OK,55,52,1023,55,2014-10-01T03:00:00,0,28079711,201775
OK,55,52,1023,55,2014-10-01T03:05:00,0,28080160,201775
OK,55,52,1023,55,2014-10-01T03:10:00,0,28080494,201775
OK,55,52,1023,55,2014-10-01T03:15:00,0,28080943,201775
OK,99,29,1023,99,2014-10-01T03:20:00,1,28081392,201775
OK,99,29,1023,99,2014-10-01T03:25:00,0,28081839,201775
OK,99,29,1023,99,2014-10-01T03:30:00,0,28082288,201775
OK,99,29,1023,99,2014-10-01T03:35:00,0,28082721,201775
OK,99,29,1023,99,2014-10-01T03:40:00,0,28083153,201775
OK,99,29,1023,99,2014-10-01T03:45:00,0,28083602,201775
OK,99,29,1023,99,2014-10-01T03:50:00,0,28084051,201775
OK,99,29,1023,99,2014-10-01T03:55:00,0,28084492,201775
OK,99,29,1023,99,2014-10-01T04:00:00,0,28084917,201775
OK,99,29,1023,99,2014-10-01T04:05:00,0,28085366,201775
OK,99,29,1023,99,2014-10-01T04:10:00,0,28085811,201775
OK,99,29,1023,99,2014-10-01T04:15:00,0,28086260,201775
OK,99,29,1023,99,2014-10-01T04:20:00,0,28086702,201775
OK,99,29,1023,99,2014-10-01T04:25:00,0,28087151,201775
OK,99,29,1023,99,2014-10-01T04:30:00,0,28087596,201775
OK,99,29,1023,99,2014-10-01T04:35:00,0,28088045,201775
OK,99,29,1023,99,2014-10-01T04:40:00,0,28088469,201775
OK,68,42,1023,68,2014-10-01T04:45:00,1,28088918,201775
OK,68,42,1023,68,2014-10-01T04:50:00,1,28089348,201775
OK,68,42,1023,68,2014-10-01T04:55:00,0,28089797,201775
OK,98,29,1023,98,2014-10-01T05:00:00,1,28090246,201775
OK,82,35,1023,82,2014-10-01T05:05:00,2,28090590,201775
OK,67,43,1023,67,2014-10-01T05:10:00,1,28091039,201775
OK,80,36,1023,80,2014-10-01T05:15:00,1,28091488,201775
OK,80,36,1023,80,2014-10-01T05:20:00,0,28091905,201775
OK,80,36,1023,80,2014-10-01T05:25:00,0,28092354,201775
OK,80,36,1023,80,2014-10-01T05:30:00,0,28092798,201775
OK,80,36,1023,80,2014-10-01T05:35:00,0,28093239,201775
OK,81,35,1023,81,2014-10-01T05:40:00,1,28093670,201775
OK,81,35,1023,81,2014-10-01T05:45:00,1,28094119,201775
OK,167,17,1023,167,2014-10-01T05:50:00,1,28094530,201775
OK,167,17,1023,167,2014-10-01T05:55:00,1,28094975,201775
OK,167,17,1023,167,2014-10-01T06:00:00,0,28095422,201775
OK,124,23,1023,124,2014-10-01T06:05:00,1,28095871,201775
OK,124,23,1023,124,2014-10-01T06:10:00,1,28096284,201775
OK,124,23,1023,124,2014-10-01T06:15:00,0,28096733,201775
OK,124,23,1023,124,2014-10-01T06:20:00,0,28097167,201775
OK,124,23,1023,124,2014-10-01T06:25:00,0,28097616,201775
OK,124,23,1023,124,2014-10-01T06:30:00,0,28098065,201775
OK,124,23,1023,124,2014-10-01T06:35:00,0,28098502,201775
OK,124,23,1023,124,2014-10-01T06:40:00,0,28098946,201775
OK,128,22,1023,128,2014-10-01T06:45:00,1,28099394,201775
OK,128,22,1023,128,2014-10-01T06:50:00,1,28099737,201775
OK,128,22,1023,128,2014-10-01T06:55:00,0,28100186,201775
OK,118,24,1023,118,2014-10-01T07:00:00,1,28100493,201775
OK,114,25,1023,114,2014-10-01T07:10:00,1,28101313,201775
OK,114,25,1023,114,2014-10-01T07:15:00,1,28101762,201775
OK,120,24,1023,120,2014-10-01T07:20:00,1,28102198,201775
OK,120,24,1023,120,2014-10-01T07:25:00,1,28102647,201775
OK,120,24,1023,120,2014-10-01T07:30:00,0,28103075,201775
OK,120,24,1023,120,2014-10-01T07:35:00,0,28103521,201775
OK,155,18,1023,155,2014-10-01T07:40:00,4,28103966,201775
OK,65,44,1023,65,2014-10-01T07:45:00,1,28104411,201775
OK,109,26,1023,109,2014-10-01T07:50:00,2,28104852,201775
OK,153,18,1023,153,2014-10-01T07:55:00,1,28105297,201775
OK,153,18,1023,153,2014-10-01T08:00:00,0,28105737,201775
OK,116,25,1023,116,2014-10-01T08:05:00,2,28106186,201775
OK,117,24,1023,117,2014-10-01T08:10:00,1,28106623,201775
OK,117,24,1023,117,2014-10-01T08:15:00,0,28107029,201775
OK,117,24,1023,117,2014-10-01T08:20:00,0,28107461,201775
OK,55,52,1023,55,2014-10-01T08:25:00,1,28107910,201775
OK,105,27,1023,105,2014-10-01T08:30:00,2,28108349,201775
OK,116,25,1023,116,2014-10-01T08:35:00,2,28108798,201775
OK,76,38,1023,76,2014-10-01T08:40:00,1,28109226,201775
OK,100,29,1023,100,2014-10-01T08:45:00,1,28109675,201775
OK,100,29,1023,100,2014-10-01T08:50:00,0,28110018,201775
OK,100,29,1023,100,2014-10-01T08:55:00,0,28110467,201775
OK,100,29,1023,100,2014-10-01T09:00:00,0,28110890,201775
OK,100,29,1023,100,2014-10-01T09:05:00,0,28111339,201775
OK,184,15,1023,184,2014-10-01T09:10:00,1,28111768,201775
OK,184,15,1023,184,2014-10-01T09:15:00,1,28112217,201775
OK,112,25,1023,112,2014-10-01T09:20:00,1,28112558,201775
OK,112,25,1023,112,2014-10-01T09:25:00,1,28113007,201775
OK,112,25,1023,112,2014-10-01T09:30:00,0,28113431,201775
OK,112,25,1023,112,2014-10-01T09:35:00,0,28113880,201775
OK,112,25,1023,112,2014-10-01T09:40:00,0,28114312,201775
OK,112,25,1023,112,2014-10-01T09:45:00,0,28114761,201775
OK,118,24,1023,118,2014-10-01T09:50:00,1,28115115,201775
OK,118,24,1023,118,2014-10-01T10:00:00,0,28115976,201775
OK,118,24,1023,118,2014-10-01T10:05:00,0,28116425,201775
OK,118,24,1023,118,2014-10-01T10:10:00,0,28116833,201775
OK,118,24,1023,118,2014-10-01T10:15:00,0,28117282,201775
OK,118,24,1023,118,2014-10-01T10:20:00,0,28117707,201775
OK,118,24,1023,118,2014-10-01T10:25:00,0,28118156,201775
OK,118,24,1023,118,2014-10-01T10:30:00,0,28118601,201775
OK,118,24,1023,118,2014-10-01T10:35:00,0,28119048,201775
OK,118,24,1023,118,2014-10-01T10:40:00,0,28119492,201775
OK,118,24,1023,118,2014-10-01T10:45:00,0,28119940,201775
OK,115,25,1023,115,2014-10-01T10:50:00,1,28120388,201775
OK,115,25,1023,115,2014-10-01T10:55:00,1,28120837,201775
OK,115,25,1023,115,2014-10-01T11:00:00,0,28121220,201775
OK,115,25,1023,115,2014-10-01T11:05:00,0,28121669,201775
OK,115,25,1023,115,2014-10-01T11:10:00,0,28122107,201775
OK,115,25,1023,115,2014-10-01T11:15:00,0,28122556,201775
OK,115,25,1023,115,2014-10-01T11:20:00,0,28122997,201775
OK,105,27,1023,105,2014-10-01T11:25:00,2,28123446,201775
OK,105,27,1023,105,2014-10-01T11:30:00,2,28123878,201775
OK,118,24,1023,118,2014-10-01T11:35:00,0,28124327,201775
OK,99,29,1023,99,2014-10-01T11:40:00,2,28124729,201775
OK,99,29,1023,99,2014-10-01T11:45:00,0,28125178,201775
OK,99,29,1023,99,2014-10-01T11:50:00,0,28125607,201775
OK,99,29,1023,99,2014-10-01T11:55:00,0,28126056,201775
OK,99,29,1023,99,2014-10-01T12:00:00,0,28126408,201775
OK,99,29,1023,99,2014-10-01T12:10:00,3,28127306,201775
OK,99,29,1023,99,2014-10-01T12:15:00,1,28127755,201775
OK,104,27,1023,104,2014-10-01T12:20:00,2,28128183,201775
OK,94,30,1023,94,2014-10-01T12:25:00,1,28128632,201775
OK,133,21,1023,133,2014-10-01T12:30:00,1,28129067,201775
OK,133,21,1023,133,2014-10-01T12:35:00,1,28129516,201775
OK,133,21,1023,133,2014-10-01T12:40:00,0,28129950,201775
OK,185,15,1023,185,2014-10-01T12:45:00,1,28130399,201775
OK,185,15,1023,185,2014-10-01T12:50:00,1,28130827,201775
OK,185,15,1023,185,2014-10-01T12:55:00,0,28131276,201775
OK,118,24,1023,118,2014-10-01T13:00:00,2,28131713,201775
OK,159,18,1023,159,2014-10-01T13:05:00,1,28132162,201775
OK,159,18,1023,159,2014-10-01T13:10:00,0,28132600,201775
OK,159,18,1023,159,2014-10-01T13:15:00,0,28133047,201775
OK,159,18,1023,159,2014-10-01T13:20:00,0,28133485,201775
OK,158,18,1023,158,2014-10-01T13:25:00,1,28133934,201775
OK,158,18,1023,158,2014-10-01T13:30:00,1,28134373,201775
OK,158,18,1023,158,2014-10-01T13:35:00,0,28134822,201775
OK,158,18,1023,158,2014-10-01T13:40:00,0,28135241,201775
OK,158,18,1023,158,2014-10-01T13:45:00,0,28135690,201775
OK,158,18,1023,158,2014-10-01T13:50:00,0,28136127,201775
OK,98,29,1023,98,2014-10-01T13:55:00,1,28136576,201775
OK,98,29,1023,98,2014-10-01T14:00:00,1,28137016,201775
OK,98,29,1023,98,2014-10-01T14:05:00,0,28137465,201775
OK,180,16,1023,180,2014-10-01T14:10:00,2,28137899,201775
OK,170,17,1023,170,2014-10-01T14:15:00,4,28138348,201775
OK,160,18,1023,160,2014-10-01T14:20:00,1,28138776,201775
OK,79,36,1023,79,2014-10-01T14:25:00,1,28139225,201775
OK,79,36,1023,79,2014-10-01T14:30:00,3,28139636,201775
OK,129,22,1023,129,2014-10-01T14:35:00,4,28140085,201775
OK,130,22,1023,130,2014-10-01T14:40:00,2,28140527,201775
OK,130,22,1023,130,2014-10-01T14:45:00,0,28140976,201775
OK,151,19,1023,151,2014-10-01T14:50:00,2,28141402,201775
OK,151,19,1023,151,2014-10-01T14:55:00,2,28141851,201775
OK,151,19,1023,151,2014-10-01T15:00:00,0,28142279,201775
OK,151,19,1023,151,2014-10-01T15:05:00,0,28142728,201775
OK,151,19,1023,151,2014-10-01T15:10:00,0,28143155,201775
OK,151,19,1023,151,2014-10-01T15:15:00,0,28143604,201775
OK,108,26,1023,108,2014-10-01T15:20:00,1,28144052,201775
OK,108,26,1023,108,2014-10-01T15:25:00,1,28144501,201775
OK,44,65,1023,44,2014-10-01T15:30:00,1,28144922,201775
OK,44,65,1023,44,2014-10-01T15:35:00,1,28145336,201775
OK,44,65,1023,44,2014-10-01T15:40:00,0,28145785,201775
OK,141,20,1023,141,2014-10-01T15:45:00,1,28146234,201775
OK,141,20,1023,141,2014-10-01T15:50:00,1,28146683,201775
OK,141,20,1023,141,2014-10-01T15:55:00,0,28147091,201775
OK,141,20,1023,141,2014-10-01T16:00:00,1,28147535,201775
OK,111,26,1023,111,2014-10-01T16:05:00,4,28147984,201775
OK,111,26,1023,111,2014-10-01T16:10:00,1,28148385,201775
OK,111,26,1023,111,2014-10-01T16:20:00,0,28149273,201775
OK,111,26,1023,111,2014-10-01T16:25:00,0,28149722,201775
OK,111,26,1023,111,2014-10-01T16:30:00,0,28150148,201775
OK,89,32,1023,89,2014-10-01T16:35:00,1,28150597,201775
OK,99,29,1023,99,2014-10-01T16:40:00,3,28151015,201775
OK,101,28,1023,101,2014-10-01T16:45:00,2,28151464,201775
OK,99,29,1023,99,2014-10-01T16:50:00,0,28151913,201775
OK,99,29,1023,99,2014-10-01T17:00:00,0,28152362,201775
OK,99,29,1023,99,2014-10-01T17:05:00,0,28152808,201775
OK,99,29,1023,99,2014-10-01T17:10:00,0,28153255,201775
OK,99,29,1023,99,2014-10-01T17:15:00,0,28153704,201775
OK,99,29,1023,99,2014-10-01T17:20:00,0,28154114,201775
OK,99,29,1023,99,2014-10-01T17:25:00,0,28154563,201775
OK,99,29,1023,99,2014-10-01T17:30:00,0,28155005,201775
OK,99,29,1023,99,2014-10-01T17:35:00,0,28155453,201775
OK,99,29,1023,99,2014-10-01T17:40:00,0,28155871,201775
OK,99,29,1023,99,2014-10-01T17:45:00,0,28156320,201775
OK,78,37,1023,78,2014-10-01T17:50:00,1,28156768,201775
OK,78,37,1023,78,2014-10-01T17:55:00,1,28157207,201775
OK,78,37,1023,78,2014-10-01T18:00:00,0,28157637,201775
OK,78,37,1023,78,2014-10-01T18:05:00,0,28158085,201775
OK,78,37,1023,78,2014-10-01T18:10:00,0,28158529,201775
OK,78,37,1023,78,2014-10-01T18:15:00,0,28158975,201775
OK,78,37,1023,78,2014-10-01T18:20:00,0,28159421,201775
OK,78,37,1023,78,2014-10-01T18:25:00,0,28159756,201775
OK,78,37,1023,78,2014-10-01T18:30:00,0,28160205,201775
OK,78,37,1023,78,2014-10-01T18:35:00,0,28160654,201775
OK,78,37,1023,78,2014-10-01T18:40:00,0,28161092,201775
OK,78,37,1023,78,2014-10-01T18:45:00,0,28161541,201775
OK,78,37,1023,78,2014-10-01T18:50:00,0,28161958,201775
OK,78,37,1023,78,2014-10-01T18:55:00,0,28162407,201775
OK,78,37,1023,78,2014-10-01T19:00:00,0,28162801,201775
OK,78,37,1023,78,2014-10-01T19:05:00,0,28163240,201775
OK,133,21,1023,133,2014-10-01T19:10:00,1,28163688,201775
OK,133,21,1023,133,2014-10-01T19:15:00,1,28164137,201775
OK,133,21,1023,133,2014-10-01T19:20:00,0,28164568,201775
OK,133,21,1023,133,2014-10-01T19:25:00,0,28165017,201775
OK,133,21,1023,133,2014-10-01T19:30:00,0,28165442,201775
OK,133,21,1023,133,2014-10-01T19:35:00,0,28165890,201775
OK,133,21,1023,133,2014-10-01T19:40:00,0,28166331,201775
OK,133,21,1023,133,2014-10-01T19:45:00,0,28166693,201775
OK,133,21,1023,133,2014-10-01T19:50:00,0,28167142,201775
OK,133,21,1023,133,2014-10-01T19:55:00,0,28167571,201775
OK,133,21,1023,133,2014-10-01T20:00:00,0,28168004,201775
OK,133,21,1023,133,2014-10-01T20:05:00,0,28168453,201775
OK,133,21,1023,133,2014-10-01T20:10:00,0,28168898,201775
OK,69,42,1023,69,2014-10-01T20:15:00,1,28169347,201775
OK,69,42,1023,69,2014-10-01T20:20:00,1,28169795,201775
OK,69,42,1023,69,2014-10-01T20:25:00,0,28170221,201775
OK,69,42,1023,69,2014-10-01T20:30:00,0,28170666,201775
OK,69,42,1023,69,2014-10-01T20:35:00,0,28171114,201775
OK,69,42,1023,69,2014-10-01T20:40:00,0,28171551,201775
OK,69,42,1023,69,2014-10-01T20:45:00,0,28171997,201775
OK,69,42,1023,69,2014-10-01T20:50:00,0,28172445,201775
OK,69,42,1023,69,2014-10-01T20:55:00,0,28172891,201775
OK,69,42,1023,69,2014-10-01T21:00:00,0,28173337,201775
OK,69,42,1023,69,2014-10-01T21:05:00,0,28173786,201775
OK,69,42,1023,69,2014-10-01T21:10:00,0,28174227,201775
OK,69,42,1023,69,2014-10-01T21:15:00,0,28174676,201775
OK,69,42,1023,69,2014-10-01T21:20:00,0,28175102,201775
OK,69,42,1023,69,2014-10-01T21:25:00,0,28175498,201775
OK,69,42,1023,69,2014-10-01T21:30:00,0,28175947,201775
OK,69,42,1023,69,2014-10-01T21:35:00,0,28176396,201775
OK,69,42,1023,69,2014-10-01T21:40:00,0,28176845,201775
OK,69,42,1023,69,2014-10-01T21:45:00,0,28177201,201775
OK,69,42,1023,69,2014-10-01T21:50:00,0,28177641,201775
OK,69,42,1023,69,2014-10-01T21:55:00,0,28178087,201775
OK,69,42,1023,69,2014-10-01T22:00:00,0,28178536,201775
OK,69,42,1023,69,2014-10-01T22:05:00,0,28178983,201775
OK,69,42,1023,69,2014-10-01T22:10:00,0,28179417,201775
OK,69,42,1023,69,2014-10-01T22:15:00,0,28179860,201775
OK,69,42,1023,69,2014-10-01T22:20:00,0,28180307,201775
OK,69,42,1023,69,2014-10-01T22:25:00,0,28180705,201775
OK,69,42,1023,69,2014-10-01T22:30:00,0,28181154,201775
OK,69,42,1023,69,2014-10-01T22:35:00,0,28181578,201775
OK,69,42,1023,69,2014-10-01T22:40:00,0,28182026,201775
OK,69,42,1023,69,2014-10-01T22:45:00,0,28182473,201775
OK,69,42,1023,69,2014-10-01T22:50:00,0,28182922,201775
OK,69,42,1023,69,2014-10-01T22:55:00,0,28183339,201775
OK,69,42,1023,69,2014-10-01T23:00:00,0,28183772,201775
OK,69,42,1023,69,2014-10-01T23:05:00,0,28184217,201775
OK,69,42,1023,69,2014-10-01T23:10:00,0,28184666,201775
OK,69,42,1023,69,2014-10-01T23:15:00,0,28185101,201775
OK,69,42,1023,69,2014-10-01T23:20:00,0,28185549,201775
OK,69,42,1023,69,2014-10-01T23:25:00,0,28185980,201775
OK,69,42,1023,69,2014-10-01T23:30:00,0,28186372,201775
OK,69,42,1023,69,2014-10-01T23:40:00,0,28187219,201775
OK,69,42,1023,69,2014-10-01T23:55:00,0,28188551,201775
OK,69,42,1023,69,2014-10-02T00:05:00,0,28189436,201775
OK,69,42,1023,69,2014-10-02T00:10:00,0,28189858,201775
OK,69,42,1023,69,2014-10-02T00:15:00,0,28190307,201775
OK,69,42,1023,69,2014-10-02T00:20:00,0,28190660,201775
OK,69,42,1023,69,2014-10-02T00:30:00,0,28191558,201775
OK,69,42,1023,69,2014-10-02T00:35:00,0,28191864,201775
OK,69,42,1023,69,2014-10-02T00:45:00,0,28192746,201775
OK,69,42,1023,69,2014-10-02T00:50:00,0,28193190,201775
OK,69,42,1023,69,2014-10-02T00:55:00,0,28193557,201775
OK,69,42,1023,69,2014-10-02T01:05:00,0,28194455,201775
OK,69,42,1023,69,2014-10-02T01:10:00,0,28194904,201775
OK,69,42,1023,69,2014-10-02T01:15:00,0,28195140,201775
OK,69,42,1023,69,2014-10-02T01:25:00,0,28196038,201775
OK,69,42,1023,69,2014-10-02T01:30:00,0,28196322,201775
OK,69,42,1023,69,2014-10-02T01:35:00,0,28196771,201775
OK,69,42,1023,69,2014-10-02T01:40:00,0,28197194,201775
OK,69,42,1023,69,2014-10-02T01:45:00,0,28197643,201775
OK,69,42,1023,69,2014-10-02T01:50:00,0,28198091,201775
OK,69,42,1023,69,2014-10-02T01:55:00,0,28198539,201775
OK,69,42,1023,69,2014-10-02T02:00:00,0,28198988,201775
OK,69,42,1023,69,2014-10-02T02:05:00,0,28199360,201775
OK,69,42,1023,69,2014-10-02T02:10:00,0,28199802,201775
OK,69,42,1023,69,2014-10-02T02:15:00,0,28200244,201775
OK,69,42,1023,69,2014-10-02T02:20:00,0,28200687,201775
OK,69,42,1023,69,2014-10-02T02:25:00,0,28201136,201775
OK,69,42,1023,69,2014-10-02T02:30:00,0,28201567,201775
OK,69,42,1023,69,2014-10-02T02:45:00,0,28202465,201775
OK,69,42,1023,69,2014-10-02T02:50:00,0,28202907,201775
OK,69,42,1023,69,2014-10-02T02:55:00,0,28203355,201775
OK,69,42,1023,69,2014-10-02T03:00:00,0,28203790,201775
OK,69,42,1023,69,2014-10-02T03:10:00,0,28204239,201775
OK,69,42,1023,69,2014-10-02T03:25:00,0,28204688,201775
OK,69,42,1023,69,2014-10-02T03:30:00,0,28205137,201775
OK,69,42,1023,69,2014-10-02T03:35:00,0,28205565,201775
OK,69,42,1023,69,2014-10-02T03:40:00,0,28206012,201775
OK,69,42,1023,69,2014-10-02T03:45:00,0,28206395,201775
OK,69,42,1023,69,2014-10-02T03:55:00,0,28207293,201775
OK,69,42,1023,69,2014-10-02T04:00:00,0,28207712,201775
OK,69,42,1023,69,2014-10-02T04:05:00,0,28208161,201775
OK,69,42,1023,69,2014-10-02T04:10:00,0,28208588,201775
OK,69,42,1023,69,2014-10-02T04:15:00,0,28209037,201775
OK,69,42,1023,69,2014-10-02T04:20:00,0,28209475,201775
OK,69,42,1023,69,2014-10-02T04:25:00,0,28209924,201775
OK,69,42,1023,69,2014-10-02T04:30:00,0,28210347,201775
OK,69,42,1023,69,2014-10-02T04:35:00,0,28210796,201775
OK,69,42,1023,69,2014-10-02T04:40:00,0,28211221,201775
OK,69,42,1023,69,2014-10-02T04:45:00,0,28211665,201775
OK,69,42,1023,69,2014-10-02T04:50:00,0,28212043,201775
OK,69,42,1023,69,2014-10-02T05:00:00,0,28212921,201775
OK,190,15,1023,190,2014-10-02T05:05:00,2,28213370,201775
OK,125,23,1023,125,2014-10-02T05:10:00,0,28213808,201775
OK,70,41,1023,70,2014-10-02T05:15:00,1,28214257,201775
OK,70,41,1023,70,2014-10-02T05:20:00,0,28214670,201775
OK,70,41,1023,70,2014-10-02T05:25:00,0,28215119,201775
OK,70,41,1023,70,2014-10-02T05:30:00,0,28215535,201775
OK,70,41,1023,70,2014-10-02T05:35:00,0,28215984,201775
OK,104,27,1023,104,2014-10-02T05:40:00,1,28216323,201775
OK,104,27,1023,104,2014-10-02T05:45:00,1,28216763,201775
OK,104,27,1023,104,2014-10-02T05:50:00,0,28217210,201775
OK,144,20,1023,144,2014-10-02T05:55:00,1,28217659,201775
OK,118,24,1023,118,2014-10-02T06:00:00,1,28218098,201775
OK,115,25,1023,115,2014-10-02T06:05:00,3,28218547,201775
OK,113,25,1023,113,2014-10-02T06:10:00,2,28218967,201775
OK,113,25,1023,113,2014-10-02T06:15:00,0,28219416,201775
OK,197,14,1023,197,2014-10-02T06:20:00,1,28219789,201775
OK,197,14,1023,197,2014-10-02T06:30:00,0,28220672,201775
OK,197,14,1023,197,2014-10-02T06:35:00,0,28221121,201775
OK,126,23,1023,126,2014-10-02T06:40:00,1,28221502,201775
OK,128,22,1023,128,2014-10-02T06:45:00,2,28221788,201775
OK,130,22,1023,130,2014-10-02T07:00:00,0,28222382,201775
OK,130,22,1023,130,2014-10-02T07:10:00,0,28223262,201775
OK,130,22,1023,130,2014-10-02T07:15:00,0,28223697,201775
OK,130,22,1023,130,2014-10-02T07:20:00,0,28224145,201775
OK,141,20,1023,141,2014-10-02T07:25:00,2,28224500,201775
OK,148,19,1023,148,2014-10-02T07:30:00,0,28224949,201775
OK,75,38,1023,75,2014-10-02T07:35:00,0,28225398,201775
OK,75,38,1023,75,2014-10-02T07:40:00,0,28225720,201775
OK,66,43,1023,66,2014-10-02T07:50:00,1,28226610,201775
OK,75,38,1023,75,2014-10-02T07:55:00,0,28227059,201775
OK,75,38,1023,75,2014-10-02T08:00:00,0,28227474,201775
OK,134,21,1023,134,2014-10-02T08:05:00,1,28227923,201775
OK,134,21,1023,134,2014-10-02T08:10:00,0,28228282,201775
OK,134,21,1023,134,2014-10-02T08:20:00,0,28229141,201775
OK,79,36,1023,79,2014-10-02T08:25:00,1,28229590,201775
OK,79,36,1023,79,2014-10-02T08:30:00,0,28229940,201775
OK,100,29,1023,100,2014-10-02T08:35:00,1,28230389,201775
OK,100,29,1023,100,2014-10-02T08:40:00,1,28230755,201775
OK,100,29,1023,100,2014-10-02T08:45:00,0,28231203,201775
OK,260,11,1023,260,2014-10-02T08:50:00,1,28231627,201775
OK,260,11,1023,260,2014-10-02T08:55:00,0,28232076,201775
OK,260,11,1023,260,2014-10-02T09:00:00,0,28232418,201775
OK,260,11,1023,260,2014-10-02T09:10:00,0,28232867,201775
OK,72,40,1023,72,2014-10-02T09:15:00,1,28233316,201775
OK,72,40,1023,72,2014-10-02T09:20:00,1,28233740,201775
OK,100,29,1023,100,2014-10-02T09:25:00,0,28234189,201775
OK,100,29,1023,100,2014-10-02T09:30:00,0,28234522,201775
OK,115,25,1023,115,2014-10-02T09:40:00,0,28235398,201775
OK,115,25,1023,115,2014-10-02T09:45:00,0,28235847,201775
OK,115,25,1023,115,2014-10-02T09:50:00,0,28236290,201775
OK,115,25,1023,115,2014-10-02T09:55:00,0,28236737,201775
OK,115,25,1023,115,2014-10-02T10:00:00,0,28237140,201775
OK,115,25,1023,115,2014-10-02T10:05:00,0,28237588,201775
OK,87,33,1023,87,2014-10-02T10:10:00,4,28238036,201775
OK,47,61,1023,47,2014-10-02T10:15:00,0,28238483,201775
OK,97,29,1023,97,2014-10-02T10:20:00,1,28238924,201775
OK,97,29,1023,97,2014-10-02T10:25:00,1,28239373,201775
OK,97,29,1023,97,2014-10-02T10:30:00,0,28239803,201775
OK,97,29,1023,97,2014-10-02T10:35:00,0,28240252,201775
OK,79,36,1023,79,2014-10-02T10:40:00,1,28240696,201775
OK,79,36,1023,79,2014-10-02T10:45:00,0,28241145,201775
OK,79,36,1023,79,2014-10-02T10:50:00,0,28241577,201775
OK,96,30,1023,96,2014-10-02T10:55:00,3,28242025,201775
OK,87,33,1023,87,2014-10-02T11:00:00,2,28242421,201775
OK,87,33,1023,87,2014-10-02T11:05:00,0,28242870,201775
OK,87,33,1023,87,2014-10-02T11:10:00,0,28243319,201775
OK,87,33,1023,87,2014-10-02T11:15:00,0,28243644,201775
OK,87,33,1023,87,2014-10-02T11:20:00,0,28244082,201775
OK,87,33,1023,87,2014-10-02T11:25:00,0,28244511,201775
OK,87,33,1023,87,2014-10-02T11:30:00,0,28244960,201775
OK,110,26,1023,110,2014-10-02T11:35:00,0,28245409,201775
OK,110,26,1023,110,2014-10-02T11:40:00,0,28245815,201775
OK,110,26,1023,110,2014-10-02T11:45:00,0,28246264,201775
OK,107,27,1023,107,2014-10-02T11:50:00,5,28246701,201775
OK,107,27,1023,107,2014-10-02T11:55:00,1,28247150,201775
OK,107,27,1023,107,2014-10-02T12:00:00,0,28247596,201775
OK,107,27,1023,107,2014-10-02T12:05:00,0,28248026,201775
OK,107,27,1023,107,2014-10-02T12:10:00,0,28248475,201775
OK,142,20,1023,142,2014-10-02T12:15:00,2,28248922,201775
OK,165,17,1023,165,2014-10-02T12:20:00,0,28249350,201775
OK,140,20,1023,140,2014-10-02T12:25:00,4,28249794,201775
OK,140,20,1023,140,2014-10-02T12:30:00,4,28250213,201775
OK,99,29,1023,99,2014-10-02T12:35:00,1,28250611,201775
OK,109,26,1023,109,2014-10-02T13:20:00,2,28251936,201775
OK,77,37,1023,77,2014-10-02T13:30:00,0,28252520,201775
OK,77,37,1023,77,2014-10-02T13:35:00,0,28252962,201775
OK,77,37,1023,77,2014-10-02T13:40:00,0,28253379,201775
OK,108,26,1023,108,2014-10-02T13:50:00,1,28254233,201775
OK,74,39,1023,74,2014-10-02T13:55:00,2,28254554,201775
OK,115,25,1023,115,2014-10-02T14:10:00,2,28255131,201775
OK,162,17,1023,162,2014-10-02T14:15:00,1,28255580,201775
OK,190,15,1023,190,2014-10-02T14:20:00,2,28256008,201775
OK,219,13,1023,219,2014-10-02T14:25:00,1,28256457,201775
OK,160,18,1023,160,2014-10-02T14:30:00,1,28256885,201775
OK,160,18,1023,160,2014-10-02T14:35:00,0,28257334,201775
OK,160,18,1023,160,2014-10-02T14:40:00,0,28257775,201775
OK,134,21,1023,134,2014-10-02T14:45:00,2,28258223,201775
OK,133,21,1023,133,2014-10-02T14:50:00,3,28258656,201775
OK,102,28,1023,102,2014-10-02T14:55:00,1,28259102,201775
OK,110,26,1023,110,2014-10-02T15:00:00,2,28259551,201775
OK,108,26,1023,108,2014-10-02T15:05:00,2,28259998,201775
OK,132,21,1023,132,2014-10-02T15:10:00,1,28260431,201775
OK,132,21,1023,132,2014-10-02T15:15:00,0,28260880,201775
OK,132,21,1023,132,2014-10-02T15:20:00,0,28261320,201775
OK,59,49,1023,59,2014-10-02T15:25:00,1,28261702,201775
OK,59,49,1023,59,2014-10-02T15:30:00,0,28262132,201775
OK,59,49,1023,59,2014-10-02T15:40:00,0,28263025,201775
OK,59,49,1023,59,2014-10-02T15:45:00,0,28263463,201775
OK,59,49,1023,59,2014-10-02T15:50:00,0,28263904,201775
OK,59,49,1023,59,2014-10-02T15:55:00,0,28264306,201775
OK,195,14,1023,195,2014-10-02T16:00:00,1,28264755,201775
OK,195,14,1023,195,2014-10-02T16:05:00,1,28265193,201775
OK,82,35,1023,82,2014-10-02T16:10:00,1,28265633,201775